Weather History for Cedar Rapids, IA

Change the Weather History Date:

Tuesday, January 2, 2007

  Actual Average Record
Temperature  
Mean Temperature 28 °F 20 °F  
Max Temperature 39 °F 28 °F 56 °F (1897)
Min Temperature 18 °F 11 °F -19 °F (1979)
Degree Days  
Heating Degree Days 36 45  
Month to date heating degree days 90  
Since 1 July heating degree days 2829  
Cooling Degree Days 0 0  
Month to date cooling degree days 0  
Year to date cooling degree days 0  
Moisture  
Dew Point 23 °F    
Average Humidity 82    
Maximum Humidity 96    
Minimum Humidity 58    
Precipitation  
Precipitation 0.00 in 0.04 in 0.58 in (2006)
Month to date precipitation 0.07  
Year to date precipitation 0.07  
Sea Level Pressure  
Sea Level Pressure 30.28 in    
Wind  
Wind Speed 6 mph (SSW)    
Max Wind Speed 16 mph    
Max Gust Speed -    
Visibility 8 miles    
Events      
T = Trace of Precipitation, MM = Missing Value Source: NWS Daily Summary

Daily Weather History Graph

Daily Weather History Graph

Search for Another Location

Airport:

Trip Planner

Search our weather history database for the weather conditions in past years. The results will help you decide how hot, cold, wet, or windy it might be!

Date:

Astronomy

Jan. 02, 2007 Rise Set
Actual Time 7:34 AM CST 4:47 PM CST
Civil Twilight 7:03 AM CST 5:18 PM CST
Nautical Twilight 6:28 AM CST 5:53 PM CST
Astronomical Twilight 5:54 AM CST 6:27 PM CST
Moon 3:40 PM CST (1/2) 7:09 AM CST (1/2)
Length of Visible Light 10h 15m
Length of Day
9h 12m
Waxing Gibbous, 99% of the Moon is Illuminated
Jan 2
Waxing Gibbous
Jan 3
Full
Jan 11
Last Quarter
Jan 18
New
Jan 25
First Quarter

Hourly Weather History & Observations

Time (CST) Temp. Windchill Dew Point Humidity Pressure Visibility Wind Dir Wind Speed Gust Speed Precip Events Conditions
12:52 AM 21.9 °F - 19.9 °F 92% 30.36 in 8.0 mi Calm Calm - N/A   Clear
1:52 AM 21.0 °F 14.6 °F 19.9 °F 96% 30.36 in 8.0 mi West 4.6 mph - N/A   Clear
2:52 AM 19.9 °F - 18.0 °F 92% 30.37 in 8.0 mi Calm Calm - N/A   Clear
3:52 AM 19.0 °F 12.3 °F 18.0 °F 96% 30.37 in 6.0 mi WSW 4.6 mph - N/A   Clear
4:52 AM 19.0 °F 12.3 °F 17.1 °F 92% 30.38 in 4.0 mi West 4.6 mph - N/A   Clear
5:52 AM 18.0 °F 12.7 °F 17.1 °F 96% 30.37 in 5.0 mi SSE 3.5 mph - N/A   Clear
6:52 AM 19.0 °F - 18.0 °F 96% 30.37 in 7.0 mi Calm Calm - N/A   Clear
7:52 AM 19.9 °F 13.4 °F 19.0 °F 96% 30.38 in 5.0 mi SSE 4.6 mph - N/A   Clear
8:52 AM 24.1 °F 16.0 °F 21.9 °F 91% 30.37 in 5.0 mi South 6.9 mph - N/A   Clear
9:52 AM 26.1 °F 16.8 °F 24.1 °F 92% 30.36 in 5.0 mi South 9.2 mph - N/A   Clear
10:52 AM 30.0 °F 21.7 °F 25.0 °F 82% 30.35 in 9.0 mi SSW 9.2 mph - N/A   Clear
11:52 AM 36.0 °F 28.0 °F 27.0 °F 70% 30.31 in 10.0 mi SSW 11.5 mph - N/A   Clear
12:52 PM 37.9 °F 30.9 °F 26.1 °F 62% 30.28 in 10.0 mi South 10.4 mph - N/A   Clear
1:52 PM 39.2 °F 31.6 °F 26.6 °F 61% 30.23 in 10.0 mi SSW 12.7 mph - N/A   Clear
2:52 PM 39.9 °F 32.9 °F 26.1 °F 58% 30.25 in 10.0 mi SSW 11.5 mph - N/A   Clear
3:52 PM 36.0 °F 28.0 °F 26.1 °F 67% 30.24 in 10.0 mi SSW 11.5 mph - N/A   Clear
4:52 PM 33.1 °F 25.5 °F 26.1 °F 75% 30.22 in 10.0 mi South 9.2 mph - N/A   Clear
5:52 PM 32.0 °F 25.6 °F 24.8 °F 75% 30.17 in 10.0 mi South 6.9 mph - N/A   Clear
6:52 PM 30.0 °F 22.4 °F 25.0 °F 82% 30.20 in 10.0 mi South 8.1 mph - N/A   Clear
7:52 PM 30.0 °F 21.1 °F 24.1 °F 79% 30.18 in 10.0 mi South 10.4 mph - N/A   Clear
8:52 PM 30.0 °F 21.1 °F 24.1 °F 79% 30.16 in 10.0 mi South 10.4 mph - N/A   Clear
9:52 PM 30.0 °F 21.1 °F 25.0 °F 82% 30.16 in 10.0 mi South 10.4 mph - N/A   Clear
10:52 PM 32.0 °F 22.5 °F 26.6 °F 80% 30.10 in 10.0 mi South 12.7 mph - N/A   Clear
11:52 PM 32.0 °F 21.2 °F 26.1 °F 79% 30.10 in 10.0 mi SSW 16.1 mph - N/A   Clear